period_start,C,m1,H,J0,J1,J2,J3,J4,J5,JA,JB,JC,JD,JJ,JK,JN,#
2018-10-02 00:00:03,0.00,0.00,0.00,25.82,30.65,32.40,-0.01,-0.21,1007.38,2011.99,3736.05,3035.96,3493.99,0.00,0.00,0.00,0000 0000 0000 A000 020008
2018-10-02 00:05:04,0.00,0.00,0.00,25.79,30.63,32.47,-0.00,-0.23,1007.36,2011.99,3736.10,3035.98,3493.99,0.00,0.00,0.00,0000 0000 0000 A000 020008
2018-10-02 08:45:38,0.00,0.00,0.00,13.88,15.33,14.24,-0.00,0.07,1002.94,2075.30,3828.53,3140.32,3623.35,0.00,0.00,0.00,0000 0000 0000 A000 020008
2018-10-02 08:50:39,0.00,0.00,0.00,14.21,15.26,15.52,-0.03,-0.02,1003.22,2073.61,3824.54,3138.03,3619.56,0.00,0.00,0.00,0000 0000 0000 A000 020008
2018-10-02 08:55:40,0.00,0.00,0.00,14.48,15.21,16.21,-0.03,-0.23,1003.43,2073.50,3824.01,3137.98,3619.01,0.00,0.00,0.00,0000 0000 0000 A000 020008
2018-10-02 09:00:41,0.00,0.00,0.00,14.67,15.19,16.95,-0.04,-0.24,1003.44,2073.34,3823.99,3137.98,3618.93,0.00,0.00,0.00,0000 0000 0000 A000 020008
2018-10-02 09:05:43,0.00,0.00,0.00,14.87,15.20,17.58,-0.02,-0.25,1003.61,2073.18,3823.58,3137.86,3618.24,0.00,0.00,0.00,0000 0000 0000 A000 020008
2018-10-02 09:10:44,0.00,0.00,0.00,15.15,15.25,17.93,-0.01,-0.34,1003.84,2073.03,3823.02,3137.20,3617.96,0.00,0.00,0.00,0000 0000 0000 A000 020008
2018-10-02 09:15:45,0.00,0.00,0.00,15.48,15.32,18.18,-0.01,-0.47,1003.92,2073.00,3822.63,3137.00,3617.27,0.00,0.00,0.00,0000 0000 0000 A000 020008
2018-10-02 09:20:46,0.00,0.00,0.00,15.81,15.42,18.51,-0.01,-0.49,1003.92,2072.99,3822.00,3136.65,3616.77,0.00,0.00,0.00,0000 0000 0000 A000 020008
2018-10-02 09:25:47,0.00,0.00,0.00,16.12,15.55,18.86,-0.01,-0.49,1003.94,2072.47,3821.19,3136.00,3615.95,0.00,0.00,0.00,0000 0000 0000 A000 020008
2018-10-02 09:30:49,0.00,0.00,0.00,16.41,15.70,19.19,-0.01,-0.52,1004.01,2072.02,3820.39,3135.25,3615.04,0.00,0.00,0.00,0000 0000 0000 A000 020008
2018-10-02 09:35:50,0.00,0.00,0.00,16.67,15.88,19.50,-0.01,-0.62,1004.32,2071.82,3819.49,3134.78,3614.03,0.00,0.00,0.00,0000 0000 0000 A000 020008
2018-10-02 09:40:51,0.00,0.00,0.00,16.90,16.07,19.83,-0.00,-0.71,1004.41,2071.07,3818.44,3133.85,3612.87,0.00,0.00,0.00,0000 0000 0000 A000 020008
2018-10-02 09:45:52,0.00,0.00,0.00,17.12,16.27,20.14,-0.00,-0.74,1004.43,2070.63,3817.19,3132.83,3611.61,0.00,0.00,0.00,0000 0000 0000 A000 020008
2018-10-02 09:50:53,0.00,0.00,0.00,17.33,16.49,20.46,-0.00,-0.78,1004.57,2069.96,3815.88,3131.73,3610.22,0.00,0.00,0.00,0000 0000 0000 A000 020008
2018-10-02 09:55:54,0.00,0.00,0.00,17.53,16.71,20.76,0.00,-0.96,1004.81,2069.12,3814.66,3130.65,3608.80,0.00,0.00,0.00,0000 0000 0000 A000 020008
2018-10-02 10:00:55,0.00,0.00,0.00,17.72,16.93,21.04,0.00,-0.99,1004.88,2068.68,3813.35,3129.46,3607.41,0.00,0.00,0.00,0000 0000 0000 A000 020008
2018-10-02 10:05:56,0.00,0.00,0.00,17.89,17.16,21.32,0.00,-0.95,1004.88,2067.93,3811.77,3128.25,3605.74,0.00,0.00,0.00,0000 0000 0000 A000 020008
2018-10-02 10:10:57,0.00,0.00,0.00,18.04,17.39,21.58,0.00,-1.00,1004.90,2067.08,3810.36,3126.90,3604.21,0.00,0.00,0.00,0000 0000 0000 A000 020008
2018-10-02 10:15:59,0.00,0.00,0.00,18.17,17.63,21.83,0.00,-1.01,1004.90,2066.29,3808.89,3125.60,3602.58,0.00,0.00,0.00,0000 0000 0000 A000 020008
2018-10-02 10:21:00,0.00,0.00,0.00,18.30,17.86,22.07,0.00,-1.07,1004.90,2065.56,3807.45,3124.34,3600.98,0.00,0.00,0.00,0000 0000 0000 A000 020008
2018-10-02 10:26:01,0.00,0.00,0.00,18.42,18.09,22.30,0.00,-1.20,1004.92,2064.81,3805.80,3122.90,3599.27,0.00,0.00,0.00,0000 0000 0000 A000 020008
2018-10-02 10:31:02,0.00,0.00,0.00,18.52,18.32,22.51,0.00,-1.22,1004.93,2063.98,3804.26,3121.63,3597.62,0.00,0.00,0.00,0000 0000 0000 A000 020008
2018-10-02 10:36:03,0.00,0.00,0.00,18.62,18.55,22.70,0.00,-1.25,1004.92,2063.12,3802.77,3120.32,3595.95,0.00,0.00,0.00,0000 0000 0000 A000 020008
2018-10-02 10:41:05,0.00,0.00,0.00,18.70,18.76,22.87,0.00,-1.25,1004.93,2062.37,3801.27,3118.97,3594.30,0.00,0.00,0.00,0000 0000 0000 A000 020008
2018-10-02 10:46:06,0.00,0.00,0.00,18.79,18.98,23.05,0.00,-1.28,1004.95,2061.56,3799.73,3117.65,3592.67,0.00,0.00,0.00,0000 0000 0000 A000 020008
2018-10-02 10:51:07,0.00,0.00,0.00,18.87,19.19,23.25,0.00,-1.42,1005.11,2060.82,3798.26,3116.36,3591.03,0.00,0.00,0.00,0000 0000 0000 A000 020008
2018-10-02 10:56:08,0.00,0.00,0.00,18.94,19.40,23.47,0.00,-1.48,1005.13,2060.04,3796.76,3115.09,3589.44,0.00,0.00,0.00,0000 0000 0000 A000 020008
2018-10-02 11:01:09,0.00,0.00,0.00,19.00,19.60,23.62,0.00,-1.48,1005.16,2059.23,3795.40,3113.82,3587.86,0.00,0.00,0.00,0000 0000 0000 A000 020008
2018-10-02 11:06:11,0.00,0.00,0.00,19.06,19.79,23.77,0.00,-1.49,1005.29,2058.49,3794.01,3112.61,3586.36,0.00,0.00,0.00,0000 0000 0000 A000 020008
2018-10-02 11:11:12,0.00,0.00,0.00,19.12,19.98,23.91,0.00,-1.50,1005.38,2057.88,3792.68,3111.47,3584.87,0.00,0.00,0.00,0000 0000 0000 A000 020008
2018-10-02 11:16:13,0.00,0.00,0.00,19.17,20.16,24.03,0.00,-1.50,1005.39,2057.06,3791.48,3110.36,3583.56,0.00,0.00,0.00,0000 0000 0000 A000 020008
2018-10-02 11:21:14,0.00,0.00,0.00,19.23,20.33,24.13,0.00,-1.50,1005.39,2056.37,3790.05,3109.16,3582.28,0.00,0.00,0.00,0000 0000 0000 A000 020008
2018-10-02 11:26:15,0.00,0.00,0.00,19.28,20.50,24.21,0.00,-1.51,1005.39,2055.81,3788.78,3108.09,3580.85,0.00,0.00,0.00,0000 0000 0000 A000 020008
2018-10-02 11:31:17,0.00,0.00,0.00,19.33,20.67,24.30,0.00,-1.52,1005.37,2055.04,3787.61,3107.00,3579.57,0.00,0.00,0.00,0000 0000 0000 A000 020008
2018-10-02 11:36:18,0.00,0.00,0.00,19.38,20.83,24.38,0.00,-1.52,1005.38,2054.49,3786.43,3105.95,3578.27,0.00,0.00,0.00,0000 0000 0000 A000 020008
2018-10-02 11:41:19,0.00,0.00,0.00,19.42,20.98,24.49,0.00,-1.54,1005.38,2053.96,3785.28,3105.01,3576.97,0.00,0.00,0.00,0000 0000 0000 A000 020008
2018-10-02 11:46:20,0.00,0.00,0.00,19.46,21.13,24.52,0.00,-1.63,1005.38,2053.15,3784.16,3104.03,3575.80,0.00,0.00,0.00,0000 0000 0000 A000 020008
2018-10-02 11:51:22,0.00,0.00,0.00,19.50,21.28,24.51,0.00,-1.60,1005.39,2052.73,3783.05,3103.00,3574.51,0.00,0.00,0.00,0000 0000 0000 A000 020008
2018-10-02 11:56:23,0.00,0.00,0.00,19.53,21.41,24.62,0.00,-1.69,1005.39,2052.03,3782.01,3102.07,3573.41,0.00,0.00,0.00,0000 0000 0000 A000 020008
2018-10-02 12:01:24,0.00,0.00,0.00,19.57,21.55,24.70,0.00,-1.72,1005.39,2051.59,3781.02,3101.21,3572.33,0.00,0.00,0.00,0000 0000 0000 A000 020008
2018-10-02 12:06:25,0.00,0.00,0.00,19.61,21.67,24.80,0.00,-1.73,1005.40,2051.01,3780.04,3100.37,3571.30,0.00,0.00,0.00,0000 0000 0000 A000 020008
2018-10-02 12:11:26,0.00,0.00,0.00,19.64,21.79,25.00,0.00,-1.74,1005.47,2050.50,3779.04,3099.44,3570.16,0.00,0.00,0.00,0000 0000 0000 A000 020008
2018-10-02 12:16:27,0.00,0.00,0.00,19.67,21.91,25.12,0.00,-1.75,1005.43,2050.00,3778.11,3098.73,3569.11,0.00,0.00,0.00,0000 0000 0000 A000 020008
2018-10-02 12:21:29,0.00,0.00,0.00,19.70,22.02,25.18,0.00,-1.75,1005.41,2049.47,3777.21,3097.96,3568.15,0.00,0.00,0.00,0000 0000 0000 A000 020008
2018-10-02 12:26:30,0.00,0.00,0.00,19.74,22.13,25.30,0.00,-1.75,1005.41,2049.01,3776.37,3097.12,3567.28,0.00,0.00,0.00,0000 0000 0000 A000 020008
2018-10-02 12:31:31,0.00,0.00,0.00,19.77,22.24,25.37,0.00,-1.75,1005.40,2048.62,3775.59,3096.39,3566.31,0.00,0.00,0.00,0000 0000 0000 A000 020008
2018-10-02 12:36:32,0.00,0.00,0.00,19.80,22.34,25.47,0.00,-1.75,1005.40,2048.01,3774.89,3095.79,3565.35,0.00,0.00,0.00,0000 0000 0000 A000 020008
2018-10-02 12:41:34,0.00,0.00,0.00,19.83,22.44,25.52,0.00,-1.75,1005.40,2047.65,3774.06,3095.03,3564.54,0.00,0.00,0.00,0000 0000 0000 A000 020008
2018-10-02 12:46:34,0.00,0.00,0.00,19.86,22.53,25.64,0.00,-1.76,1005.39,2047.03,3773.33,3094.27,3563.76,0.00,0.00,0.00,0000 0000 0000 A000 020008
2018-10-02 12:51:35,0.00,0.00,0.00,19.89,22.62,25.68,0.00,-1.76,1005.39,2047.00,3772.72,3093.88,3562.95,0.00,0.00,0.00,0000 0000 0000 A000 020008
2018-10-02 12:56:37,0.00,0.00,0.00,19.90,22.71,25.72,0.00,-1.81,1005.39,2046.94,3772.01,3093.07,3562.10,0.00,0.00,0.00,0000 0000 0000 A000 020008
2018-10-02 13:01:38,0.00,0.00,0.00,19.92,22.79,25.81,0.00,-1.79,1005.39,2046.25,3771.25,3092.79,3561.55,0.00,0.00,0.00,0000 0000 0000 A000 020008
2018-10-02 13:06:39,0.00,0.00,0.00,19.94,22.87,25.86,0.00,-1.83,1005.39,2046.00,3770.86,3092.04,3560.96,0.00,0.00,0.00,0000 0000 0000 A000 020008
2018-10-02 13:11:40,0.00,0.00,0.00,19.96,22.95,25.95,0.01,-1.92,1005.39,2045.95,3770.07,3091.63,3560.16,0.00,0.00,0.00,0000 0000 0000 A000 020008
2018-10-02 13:16:41,0.00,0.00,0.00,19.98,23.02,25.99,0.00,-1.83,1005.39,2045.19,3769.47,3091.00,3559.51,0.00,0.00,0.00,0000 0000 0000 A000 020008
2018-10-02 13:21:43,0.00,0.00,0.00,20.02,23.10,26.05,0.00,-1.84,1005.39,2045.00,3769.00,3090.57,3558.97,0.00,0.00,0.00,0000 0000 0000 A000 020008
2018-10-02 13:26:44,0.00,0.00,0.00,20.03,23.17,26.15,0.00,-1.94,1005.39,2044.96,3768.33,3090.01,3558.16,0.00,0.00,0.00,0000 0000 0000 A000 020008
2018-10-02 13:31:45,0.00,0.00,0.00,20.05,23.23,26.16,0.00,-1.88,1005.39,2044.44,3767.99,3089.64,3557.79,0.00,0.00,0.00,0000 0000 0000 A000 020008
2018-10-02 13:36:46,0.00,0.00,0.00,20.07,23.30,26.21,0.00,-1.85,1005.39,2044.02,3767.37,3089.02,3557.07,0.00,0.00,0.00,0000 0000 0000 A000 020008
2018-10-02 13:41:48,0.00,0.00,0.00,20.09,23.36,26.27,0.00,-1.84,1005.39,2044.00,3767.00,3088.94,3556.77,0.00,0.00,0.00,0000 0000 0000 A000 020008
2018-10-02 13:46:49,0.00,0.00,0.00,20.11,23.42,26.29,0.00,-1.90,1005.39,2043.95,3766.64,3088.31,3556.06,0.00,0.00,0.00,0000 0000 0000 A000 020008
2018-10-02 13:51:50,0.00,0.00,0.00,20.13,23.47,26.34,0.00,-1.93,1005.39,2043.37,3766.02,3088.00,3555.88,0.00,0.00,0.00,0000 0000 0000 A000 020008
2018-10-02 13:56:51,0.00,0.00,0.00,20.14,23.53,26.42,0.00,-1.93,1005.39,2043.02,3765.77,3087.67,3555.10,0.00,0.00,0.00,0000 0000 0000 A000 020008
2018-10-02 14:01:53,0.00,0.00,0.00,20.17,23.58,26.42,0.00,-1.90,1005.39,2043.00,3765.07,3087.05,3554.93,0.00,0.00,0.00,0000 0000 0000 A000 020008
2018-10-02 14:06:54,0.00,0.00,0.00,20.18,23.63,26.47,0.00,-1.98,1005.39,2042.96,3764.97,3086.98,3554.21,0.00,0.00,0.00,0000 0000 0000 A000 020008
2018-10-02 14:11:55,0.00,0.00,0.00,20.20,23.68,26.50,0.00,-1.94,1005.39,2042.37,3764.20,3086.44,3553.99,0.00,0.00,0.00,0000 0000 0000 A000 020008
2018-10-02 14:16:56,0.00,0.00,0.00,20.22,23.73,26.55,0.00,-1.98,1005.39,2042.05,3764.00,3086.03,3553.48,0.00,0.00,0.00,0000 0000 0000 A000 020008
2018-10-02 14:21:57,0.00,0.00,0.00,20.24,23.78,26.54,0.00,-1.95,1005.39,2042.00,3763.65,3085.93,3553.00,0.00,0.00,0.00,0000 0000 0000 A000 020008
2018-10-02 14:26:58,0.00,0.00,0.00,20.25,23.82,26.59,0.00,-1.94,1005.39,2041.98,3763.05,3085.39,3552.73,0.00,0.00,0.00,0000 0000 0000 A000 020008
2018-10-02 14:31:59,0.00,0.00,0.00,20.27,23.87,26.62,0.00,-1.97,1005.39,2041.88,3763.00,3085.03,3552.08,0.00,0.00,0.00,0000 0000 0000 A000 020008
2018-10-02 14:37:01,0.00,0.00,0.00,20.28,23.91,26.64,0.00,-1.98,1005.39,2041.19,3762.44,3084.98,3551.98,0.00,0.00,0.00,0000 0000 0000 A000 020008
2018-10-02 14:42:02,0.00,0.00,0.00,20.29,23.95,26.67,0.00,-2.00,1005.39,2041.01,3762.01,3084.63,3551.58,0.00,0.00,0.00,0000 0000 0000 A000 020008
2018-10-02 14:47:03,0.00,0.00,0.00,20.32,23.99,26.69,0.00,-2.02,1005.39,2041.00,3762.00,3084.06,3551.03,0.00,0.00,0.00,0000 0000 0000 A000 020008
2018-10-02 14:52:04,0.00,0.00,0.00,20.33,24.03,26.72,0.00,-1.99,1005.39,2040.99,3761.76,3084.00,3550.98,0.00,0.00,0.00,0000 0000 0000 A000 020008
2018-10-02 14:57:05,0.00,0.00,0.00,20.35,24.07,26.73,0.00,-1.98,1005.39,2040.98,3761.07,3083.98,3550.32,0.00,0.00,0.00,0000 0000 0000 A000 020008
2018-10-02 15:02:06,0.00,0.00,0.00,20.37,24.10,26.76,0.00,-2.01,1005.39,2040.68,3761.00,3083.68,3550.02,0.00,0.00,0.00,0000 0000 0000 A000 020008
2018-10-02 15:07:08,0.00,0.00,0.00,20.39,24.14,26.81,0.00,-2.00,1005.39,2040.19,3760.96,3083.10,3549.99,0.00,0.00,0.00,0000 0000 0000 A000 020008
2018-10-02 15:12:09,0.00,0.00,0.00,20.39,24.17,26.76,0.00,-2.00,1005.34,2040.03,3760.64,3083.01,3549.81,0.00,0.00,0.00,0000 0000 0000 A000 020008
2018-10-02 15:17:10,0.00,0.00,0.00,20.42,24.21,26.79,0.00,-2.01,1005.37,2040.00,3760.07,3082.99,3549.13,0.00,0.00,0.00,0000 0000 0000 A000 020008
2018-10-02 15:22:12,0.00,0.00,0.00,20.43,24.24,26.81,0.00,-2.02,1005.38,2040.00,3760.00,3082.86,3549.00,0.00,0.00,0.00,0000 0000 0000 A000 020008
2018-10-02 15:27:13,0.00,0.00,0.00,20.44,24.27,26.85,0.00,-2.00,1005.39,2039.99,3759.97,3082.23,3548.98,0.00,0.00,0.00,0000 0000 0000 A000 020008
2018-10-02 15:32:14,0.00,0.00,0.00,20.47,24.30,26.87,0.00,-2.00,1005.39,2039.97,3759.71,3082.04,3548.65,0.00,0.00,0.00,0000 0000 0000 A000 020008
2018-10-02 15:37:15,0.00,0.00,0.00,20.49,24.33,26.91,0.00,-2.00,1005.39,2039.88,3759.15,3082.00,3548.08,0.00,0.00,0.00,0000 0000 0000 A000 020008
2018-10-02 15:42:16,0.00,0.00,0.00,20.49,24.36,26.91,0.00,-2.02,1005.39,2039.42,3759.01,3081.98,3548.00,0.00,0.00,0.00,0000 0000 0000 A000 020008
2018-10-02 15:47:17,0.00,0.00,0.00,20.51,24.39,26.90,0.00,-2.07,1005.40,2039.08,3758.99,3081.96,3547.98,0.00,0.00,0.00,0000 0000 0000 A000 020008
2018-10-02 15:52:18,0.00,0.00,0.00,20.52,24.41,26.93,0.00,-2.02,1005.40,2039.04,3758.95,3081.47,3547.79,0.00,0.00,0.00,0000 0000 0000 A000 020008
2018-10-02 15:57:19,0.00,0.00,0.00,20.54,24.44,26.92,0.00,-2.03,1005.40,2039.00,3758.34,3081.03,3547.16,0.00,0.00,0.00,0000 0000 0000 A000 020008
2018-10-02 16:02:20,0.00,0.00,0.00,20.55,24.47,26.94,0.00,-2.03,1005.40,2039.00,3758.02,3081.00,3547.00,0.00,0.00,0.00,0000 0000 0000 A000 020008
2018-10-02 16:07:21,0.00,0.00,0.00,20.57,24.49,26.97,0.00,-2.04,1005.39,2038.97,3758.00,3080.99,3546.99,0.00,0.00,0.00,0000 0000 0000 A000 020008
2018-10-02 16:12:22,0.00,0.00,0.00,20.57,24.52,26.99,0.01,-2.08,1005.39,2038.90,3757.96,3080.92,3546.70,0.00,0.00,0.00,0000 0000 0000 A000 020008
2018-10-02 16:17:23,0.00,0.00,0.00,20.59,24.54,26.98,0.00,-2.02,1005.39,2038.71,3757.77,3080.68,3546.24,0.00,0.00,0.00,0000 0000 0000 A000 020008
2018-10-02 16:22:25,0.00,0.00,0.00,20.59,24.57,27.00,0.00,-2.07,1005.39,2038.32,3757.18,3080.09,3546.00,0.00,0.00,0.00,0000 0000 0000 A000 020008
2018-10-02 16:27:26,0.00,0.00,0.00,20.62,24.59,27.01,0.00,-2.13,1005.39,2038.07,3757.02,3080.01,3546.00,0.00,0.00,0.00,0000 0000 0000 A000 020008
2018-10-02 16:32:27,0.00,0.00,0.00,20.62,24.61,27.01,0.00,-2.07,1005.39,2038.02,3757.00,3080.00,3545.99,0.00,0.00,0.00,0000 0000 0000 A000 020008
2018-10-02 16:37:28,0.00,0.00,0.00,20.64,24.63,27.05,0.00,-2.19,1005.39,2038.00,3757.00,3079.99,3545.90,0.00,0.00,0.00,0000 0000 0000 A000 020008
2018-10-02 16:42:29,0.00,0.00,0.00,20.64,24.65,27.05,0.00,-2.10,1005.38,2038.00,3756.98,3079.98,3545.39,0.00,0.00,0.00,0000 0000 0000 A000 020008
2018-10-02 16:47:31,0.00,0.00,0.00,20.65,24.67,27.06,0.00,-2.13,1005.39,2038.00,3756.69,3079.81,3545.07,0.00,0.00,0.00,0000 0000 0000 A000 020008
2018-10-02 16:52:32,0.00,0.00,0.00,20.66,24.70,27.06,0.00,-2.11,1005.39,2037.99,3756.12,3079.24,3545.00,0.00,0.00,0.00,0000 0000 0000 A000 020008
2018-10-02 16:57:33,0.00,0.00,0.00,20.67,24.72,27.13,0.00,-2.15,1005.39,2037.98,3756.01,3079.04,3544.99,0.00,0.00,0.00,0000 0000 0000 A000 020008
2018-10-02 17:02:34,0.00,0.00,0.00,20.68,24.74,27.12,0.00,-2.08,1005.39,2037.93,3756.00,3079.01,3544.97,0.00,0.00,0.00,0000 0000 0000 A000 020008
2018-10-02 17:07:35,0.00,0.00,0.00,20.69,24.75,27.13,0.00,-2.08,1005.39,2037.85,3756.00,3079.00,3544.83,0.00,0.00,0.00,0000 0000 0000 A000 020008
2018-10-02 17:12:36,0.00,0.00,0.00,20.71,24.77,27.11,0.00,-2.07,1005.39,2037.69,3755.98,3079.00,3544.47,0.00,0.00,0.00,0000 0000 0000 A000 020008
2018-10-02 17:17:38,0.00,0.00,0.00,20.72,24.80,27.17,0.00,-2.03,1005.39,2037.22,3755.94,3078.99,3544.04,0.00,0.00,0.00,0000 0000 0000 A000 020008
2018-10-02 17:22:39,0.00,0.00,0.00,20.73,24.81,27.15,0.00,-2.08,1005.39,2037.11,3755.89,3078.97,3544.01,0.00,0.00,0.00,0000 0000 0000 A000 020008
2018-10-02 17:27:40,0.00,0.00,0.00,20.74,24.82,27.18,0.00,-2.12,1005.39,2037.06,3755.62,3078.94,3544.01,0.00,0.00,0.00,0000 0000 0000 A000 020008
2018-10-02 17:32:41,0.00,0.00,0.00,20.74,24.85,27.17,0.00,-2.18,1005.39,2037.03,3755.35,3078.89,3544.00,0.00,0.00,0.00,0000 0000 0000 A000 020008
2018-10-02 17:37:42,0.00,0.00,0.00,20.76,24.86,27.18,0.00,-2.13,1005.39,2037.01,3755.06,3078.42,3543.99,0.00,0.00,0.00,0000 0000 0000 A000 020008
2018-10-02 17:42:43,0.00,0.00,0.00,20.77,24.88,27.23,0.00,-2.16,1005.39,2037.00,3755.00,3078.07,3543.96,0.00,0.00,0.00,0000 0000 0000 A000 020008
2018-10-02 17:47:45,0.00,0.00,0.00,20.79,24.90,27.22,0.00,-2.13,1005.39,2037.00,3755.00,3078.01,3543.69,0.00,0.00,0.00,0000 0000 0000 A000 020008
2018-10-02 17:52:46,0.00,0.00,0.00,20.79,24.91,27.23,0.00,-2.14,1005.39,2037.00,3755.00,3078.00,3543.27,0.00,0.00,0.00,0000 0000 0000 A000 020008
2018-10-02 17:57:47,0.00,0.00,0.00,20.79,24.92,27.27,0.00,-2.17,1005.39,2036.99,3754.97,3078.00,3543.05,0.00,0.00,0.00,0000 0000 0000 A000 020008
2018-10-02 18:02:48,0.00,0.00,0.00,20.81,24.95,27.25,0.00,-2.13,1005.39,2036.99,3754.97,3078.00,3543.05,0.00,0.00,0.00,0000 0000 0000 A000 020008
2018-10-02 18:07:49,0.00,0.00,0.00,20.82,24.96,27.28,0.00,-2.14,1005.39,2036.99,3754.82,3077.99,3543.01,0.00,0.00,0.00,0000 0000 0000 A000 020008
2018-10-02 18:12:50,0.00,0.00,0.00,20.82,24.97,27.28,0.00,-2.12,1005.39,2036.98,3754.47,3077.97,3543.00,0.00,0.00,0.00,0000 0000 0000 A000 020008
2018-10-02 18:17:52,0.00,0.00,0.00,20.83,24.97,27.24,0.00,-2.15,1005.39,2036.97,3754.13,3077.95,3542.99,0.00,0.00,0.00,0000 0000 0000 A000 020008
2018-10-02 18:22:53,0.00,0.00,0.00,20.84,25.00,27.28,0.00,-2.17,1005.39,2036.90,3754.07,3077.88,3542.98,0.00,0.00,0.00,0000 0000 0000 A000 020008
2018-10-02 18:27:54,0.00,0.00,0.00,20.84,25.01,27.29,0.00,-2.15,1005.39,2036.82,3754.03,3077.76,3542.94,0.00,0.00,0.00,0000 0000 0000 A000 020008
2018-10-02 18:32:55,0.00,0.00,0.00,20.87,25.02,27.33,0.00,-2.09,1005.36,2036.46,3754.00,3077.24,3542.62,0.00,0.00,0.00,0000 0000 0000 A000 020008
2018-10-02 18:37:56,0.00,0.00,0.00,20.87,25.03,27.29,0.00,-2.13,1005.12,2036.17,3754.00,3077.06,3542.20,0.00,0.00,0.00,0000 0000 0000 A000 020008
2018-10-02 18:42:58,0.00,0.00,0.00,20.87,25.05,27.32,0.00,-2.17,1004.95,2036.05,3754.00,3077.02,3542.03,0.00,0.00,0.00,0000 0000 0000 A000 020008
2018-10-02 18:47:59,0.00,0.00,0.00,20.87,25.06,27.33,0.00,-2.13,1004.97,2036.01,3753.96,3077.00,3542.01,0.00,0.00,0.00,0000 0000 0000 A000 020008
2018-10-02 18:53:00,0.00,0.00,0.00,20.89,25.07,27.32,0.00,-2.17,1004.93,2036.00,3753.80,3077.00,3542.00,0.00,0.00,0.00,0000 0000 0000 A000 020008
2018-10-02 18:58:02,0.00,0.00,0.00,20.89,25.08,27.35,0.00,-2.13,1004.91,2036.00,3753.53,3077.00,3542.00,0.00,0.00,0.00,0000 0000 0000 A000 020008
2018-10-02 19:03:03,0.00,0.00,0.00,20.89,25.10,27.38,0.00,-2.19,1004.92,2036.00,3753.22,3077.00,3541.98,0.00,0.00,0.00,0000 0000 0000 A000 020008
2018-10-02 19:08:04,0.00,0.00,0.00,20.89,25.11,27.38,0.00,-2.22,1004.92,2036.00,3753.08,3076.98,3541.97,0.00,0.00,0.00,0000 0000 0000 A000 020008
2018-10-02 19:13:05,0.00,0.00,0.00,20.89,25.12,27.35,0.00,-2.25,1004.94,2036.00,3753.03,3076.97,3541.95,0.00,0.00,0.00,0000 0000 0000 A000 020008
2018-10-02 19:18:06,0.00,0.00,0.00,20.90,25.12,27.36,0.00,-2.25,1004.94,2036.00,3753.01,3076.95,3541.70,0.00,0.00,0.00,0000 0000 0000 A000 020008
2018-10-02 19:23:07,0.00,0.00,0.00,20.92,25.15,27.42,0.00,-2.23,1004.92,2035.99,3753.00,3076.69,3541.21,0.00,0.00,0.00,0000 0000 0000 A000 020008
2018-10-02 19:28:09,0.00,0.00,0.00,20.92,25.15,27.39,0.00,-2.13,1004.91,2035.99,3753.00,3076.31,3541.03,0.00,0.00,0.00,0000 0000 0000 A000 020008
2018-10-02 19:33:10,0.00,0.00,0.00,20.92,25.16,27.41,0.00,-2.10,1004.91,2035.98,3752.99,3076.07,3541.01,0.00,0.00,0.00,0000 0000 0000 A000 020008
2018-10-02 19:38:11,0.00,0.00,0.00,20.93,25.17,27.39,0.00,-2.16,1004.91,2035.98,3752.98,3076.03,3541.00,0.00,0.00,0.00,0000 0000 0000 A000 020008
2018-10-02 19:43:12,0.00,0.00,0.00,20.93,25.17,27.42,0.00,-2.17,1004.90,2035.97,3752.97,3076.03,3541.00,0.00,0.00,0.00,0000 0000 0000 A000 020008
2018-10-02 19:48:13,0.00,0.00,0.00,20.94,25.19,27.41,0.00,-2.22,1004.90,2035.88,3752.78,3076.02,3541.00,0.00,0.00,0.00,0000 0000 0000 A000 020008
2018-10-02 19:53:14,0.00,0.00,0.00,20.94,25.20,27.44,0.00,-2.22,1004.90,2035.92,3752.86,3076.00,3540.99,0.00,0.00,0.00,0000 0000 0000 A000 020008
2018-10-02 19:58:15,0.00,0.00,0.00,20.94,25.21,27.43,0.00,-2.22,1004.90,2035.76,3752.53,3076.00,3540.99,0.00,0.00,0.00,0000 0000 0000 A000 020008
2018-10-02 20:03:16,0.00,0.00,0.00,20.94,25.22,27.42,0.00,-2.17,1004.87,2035.46,3752.13,3076.00,3540.95,0.00,0.00,0.00,0000 0000 0000 A000 020008
2018-10-02 20:08:18,0.00,0.00,0.00,20.94,25.22,27.44,0.00,-2.13,1004.83,2035.50,3752.12,3076.00,3540.92,0.00,0.00,0.00,0000 0000 0000 A000 020008
2018-10-02 20:13:19,0.00,0.00,0.00,20.96,25.23,27.41,0.00,-2.13,1004.89,2035.18,3752.03,3075.99,3540.53,0.00,0.00,0.00,0000 0000 0000 A000 020008
2018-10-02 20:18:20,0.00,0.00,0.00,20.97,25.24,27.44,0.00,-2.18,1004.89,2035.05,3752.00,3075.99,3540.16,0.00,0.00,0.00,0000 0000 0000 A000 020008
2018-10-02 20:23:21,0.00,0.00,0.00,20.97,25.25,27.41,0.00,-2.14,1004.89,2035.05,3752.00,3075.97,3540.07,0.00,0.00,0.00,0000 0000 0000 A000 020008
2018-10-02 20:28:22,0.00,0.00,0.00,20.97,25.25,27.47,0.00,-2.14,1004.87,2035.06,3752.00,3075.97,3540.13,0.00,0.00,0.00,0000 0000 0000 A000 020008
2018-10-02 20:33:24,0.00,0.00,0.00,20.97,25.26,27.43,0.00,-2.16,1004.64,2035.04,3752.00,3075.96,3540.07,0.00,0.00,0.00,0000 0000 0000 A000 020008
2018-10-02 20:38:25,0.00,0.00,0.00,20.97,25.27,27.42,0.00,-2.19,1004.54,2035.03,3752.00,3075.94,3540.02,0.00,0.00,0.00,0000 0000 0000 A000 020008
2018-10-02 20:43:26,0.00,0.00,0.00,20.97,25.27,27.49,0.00,-2.22,1004.45,2035.02,3751.99,3075.87,3540.02,0.00,0.00,0.00,0000 0000 0000 A000 020008
2018-10-02 20:48:28,0.00,0.00,0.00,20.97,25.27,27.45,0.00,-2.23,1004.44,2035.01,3751.99,3075.89,3540.02,0.00,0.00,0.00,0000 0000 0000 A000 020008
2018-10-02 20:53:29,0.00,0.00,0.00,20.97,25.29,27.46,0.00,-2.22,1004.43,2035.05,3752.00,3075.97,3540.04,0.00,0.00,0.00,0000 0000 0000 A000 020008
2018-10-02 20:58:30,0.00,0.00,0.00,20.97,25.30,27.48,-0.00,-2.22,1004.42,2035.03,3752.00,3075.84,3540.01,0.00,0.00,0.00,0000 0000 0000 A000 020008
2018-10-02 21:03:31,0.00,0.00,0.00,20.98,25.30,27.47,-0.00,-2.23,1004.41,2035.01,3752.00,3075.61,3540.00,0.00,0.00,0.00,0000 0000 0000 A000 020008
2018-10-02 21:08:32,0.00,0.00,0.00,20.99,25.30,27.53,0.00,-2.22,1004.41,2035.00,3751.98,3075.43,3540.00,0.00,0.00,0.00,0000 0000 0000 A000 020008
2018-10-02 21:13:34,0.00,0.00,0.00,20.99,25.30,27.50,0.00,-2.21,1004.40,2035.00,3751.99,3075.26,3540.00,0.00,0.00,0.00,0000 0000 0000 A000 020008
2018-10-02 21:18:35,0.00,0.00,0.00,20.99,25.32,27.44,-0.00,-2.15,1004.28,2035.00,3751.94,3075.06,3539.99,0.00,0.00,0.00,0000 0000 0000 A000 020008
2018-10-02 21:23:36,0.00,0.00,0.00,20.99,25.32,27.49,0.00,-2.20,1004.36,2035.00,3751.90,3075.04,3539.98,0.00,0.00,0.00,0000 0000 0000 A000 020008
2018-10-02 21:28:38,0.00,0.00,0.00,20.99,25.32,27.45,0.00,-2.17,1004.38,2035.00,3751.86,3075.04,3539.98,0.00,0.00,0.00,0000 0000 0000 A000 020008
2018-10-02 21:33:39,0.00,0.00,0.00,20.99,25.32,27.47,0.00,-2.22,1004.41,2035.00,3751.96,3075.08,3539.99,0.00,0.00,0.00,0000 0000 0000 A000 020008
2018-10-02 21:38:40,0.00,0.00,0.00,20.98,25.32,27.45,-0.00,-2.24,1004.41,2035.00,3751.95,3075.09,3539.99,0.00,0.00,0.00,0000 0000 0000 A000 020008
2018-10-02 21:43:41,0.00,0.00,0.00,20.98,25.33,27.41,-0.00,-2.19,1004.41,2035.00,3751.96,3075.06,3539.99,0.00,0.00,0.00,0000 0000 0000 A000 020008
2018-10-02 21:48:42,0.00,0.00,0.00,20.98,25.34,27.44,0.00,-2.22,1004.41,2035.00,3751.94,3075.07,3539.99,0.00,0.00,0.00,0000 0000 0000 A000 020008
2018-10-02 21:53:44,0.00,0.00,0.00,20.98,25.34,27.44,-0.00,-2.16,1004.41,2035.00,3751.90,3075.05,3539.97,0.00,0.00,0.00,0000 0000 0000 A000 020008
2018-10-02 21:58:45,0.00,0.00,0.00,20.97,25.35,27.47,-0.00,-2.22,1004.41,2035.00,3751.88,3075.05,3539.99,0.00,0.00,0.00,0000 0000 0000 A000 020008